TimeEDT,TemperatureF,Dew PointF,Humidity,Sea Level PressureIn,VisibilityMPH,Wind Direction,Wind SpeedMPH,Gust SpeedMPH,PrecipitationIn,Events,Conditions,WindDirDegrees,DateUTC
12:53 AM,79.0,73.9,84,29.99,4.0,WSW,8.1,-,N/A,,Haze,240,2013-06-12 04:53:00
1:53 AM,77.0,73.9,90,29.97,-9999.0,WSW,5.8,-,0.01,,Clear,250,2013-06-12 05:53:00
2:53 AM,75.9,73.0,91,29.96,-9999.0,Calm,Calm,-,N/A,,Clear,0,2013-06-12 06:53:00
3:53 AM,75.0,72.0,90,29.95,-9999.0,Calm,Calm,-,0.01,,Clear,0,2013-06-12 07:53:00
4:53 AM,73.9,72.0,93,29.96,-9999.0,Calm,Calm,-,N/A,,Clear,0,2013-06-12 08:53:00
5:53 AM,72.0,71.1,97,29.97,-9999.0,Calm,Calm,-,N/A,,Clear,0,2013-06-12 09:53:00
6:31 AM,69.8,69.8,100,29.99,-9999.0,Calm,Calm,-,0.02,,Partly Cloudy,0,2013-06-12 10:31:00
6:53 AM,71.1,70.0,96,29.99,5.0,Calm,Calm,-,0.02,,Partly Cloudy,0,2013-06-12 10:53:00
7:53 AM,75.9,73.0,91,30.00,5.0,Calm,Calm,-,N/A,,Clear,0,2013-06-12 11:53:00
8:53 AM,81.0,73.0,77,30.01,6.0,NW,3.5,-,N/A,,Haze,310,2013-06-12 12:53:00
9:53 AM,84.9,72.0,65,30.00,6.0,North,3.5,-,N/A,,Haze,10,2013-06-12 13:53:00
10:53 AM,88.0,73.9,63,30.01,7.0,Variable,3.5,-,N/A,,Haze,0,2013-06-12 14:53:00
11:53 AM,90.0,73.0,57,30.01,10.0,North,6.9,-,N/A,,Clear,350,2013-06-12 15:53:00
12:53 PM,91.0,69.1,48,30.01,10.0,NW,5.8,-,N/A,,Clear,320,2013-06-12 16:53:00
1:53 PM,93.0,69.1,45,30.00,10.0,Variable,3.5,-,N/A,,Clear,0,2013-06-12 17:53:00
2:53 PM,93.9,69.1,44,29.98,10.0,Calm,Calm,-,N/A,,Clear,0,2013-06-12 18:53:00
3:53 PM,95.0,71.1,46,29.96,10.0,West,6.9,-,N/A,,Clear,270,2013-06-12 19:53:00
4:53 PM,95.0,69.1,43,29.94,10.0,West,3.5,-,N/A,,Clear,280,2013-06-12 20:53:00
5:53 PM,96.1,70.0,43,29.94,10.0,NW,6.9,-,N/A,,Clear,320,2013-06-12 21:53:00
6:53 PM,93.9,70.0,46,29.93,10.0,WSW,4.6,-,N/A,,Clear,250,2013-06-12 22:53:00
7:53 PM,91.0,72.0,53,29.93,10.0,West,3.5,-,N/A,,Clear,270,2013-06-12 23:53:00
8:53 PM,82.0,75.9,82,29.93,10.0,Calm,Calm,-,N/A,,Clear,0,2013-06-13 00:53:00
9:53 PM,80.1,75.9,87,29.94,10.0,Calm,Calm,-,N/A,,Clear,0,2013-06-13 01:53:00
10:53 PM,78.1,75.9,93,29.95,10.0,Calm,Calm,-,N/A,,Clear,0,2013-06-13 02:53:00
11:53 PM,81.0,75.0,82,29.94,10.0,WSW,5.8,-,N/A,,Clear,250,2013-06-13 03:53:00